Date String (YYYY-MM-DD hh:mm:ss) UTC,Instrument flags,absolute air pressure of the measurement (hPa),sample flow rate (lpm),inlet stack bypass flow (lpm),air temperature of the measurement (°C),ambient temperature measured by the external sensor (°C),aerosol sample conditioner tube jacket temperature (°C),OPC LED temperature (°C),internal box temperature (°C),relative humidity of the measurement (%),span deviation,mass concentration of particles derived from Lorenz-Mie calculation of OPC scattering (μg/m³),mass concentration of particles derived from Lorenz-Mie calculation of OPC scattering (μg/m³),mass concentration of particles derived from Lorenz-Mie calculation of OPC scattering (μg/m³)
DateTimeUTC,F1_M11,P_M11,Q1_M11,Q2_M11,T1_M11,T2_M11,T3_M11,T4_M11,T5_M11,U1_M11,ZSPAN_M11,X0_M11,X2_M11,X1_M11
2024-01-12 09:00:00,SystemResetWarning,0817.6,5.00,000.00,019.0,018.2,000.0,027.4,020.0,6.7,0000.0,0006.91,0002.90,0002.28
2024-01-12 09:01:00,SystemResetWarning,0817.6,5.00,000.00,018.9,018.0,000.0,027.4,020.0,6.7,0000.0,0006.90,0002.82,0002.17
2024-01-12 09:02:00,SystemResetWarning,0817.6,5.00,000.00,018.9,017.8,000.0,027.4,020.0,6.6,0000.0,0006.88,0002.71,0002.06
2024-01-12 09:03:00,SystemResetWarning,0817.6,5.00,000.00,018.9,017.8,000.0,027.4,020.2,6.5,0000.0,0006.21,0002.49,0001.92
2024-01-12 09:04:00,SystemResetWarning,0817.6,5.02,000.00,019.0,018.4,000.0,027.4,020.7,6.5,0000.0,0004.76,0002.29,0001.78
2024-01-12 09:05:00,SystemResetWarning,0817.7,5.00,000.00,019.1,019.1,000.0,027.3,020.9,6.3,0000.0,0004.51,0002.12,0001.62
2024-01-12 09:06:00,SystemResetWarning,0817.7,4.99,000.00,019.1,019.0,000.0,027.3,020.4,6.2,0000.0,0003.81,0001.92,0001.45
2024-01-12 09:07:00,SystemResetWarning,0817.7,4.99,000.00,019.0,018.8,000.0,027.3,020.0,6.4,0000.0,0003.43,0001.73,0001.31
2024-01-12 09:08:00,SystemResetWarning,0817.7,5.01,000.00,019.0,018.5,000.0,027.4,020.0,6.3,0000.0,0002.96,0001.51,0001.15
2024-01-12 09:09:00,SystemResetWarning,0817.8,5.01,000.00,018.9,018.3,000.0,027.4,020.0,6.2,0000.0,0002.64,0001.32,0000.98
2024-01-12 09:10:00,SystemResetWarning,0817.8,5.01,000.00,018.9,018.1,000.0,027.4,020.0,6.1,0000.0,0002.10,0001.07,0000.78
2024-01-12 09:11:00,SystemResetWarning,0817.8,4.99,000.00,018.9,017.9,000.0,027.4,020.0,6.3,0000.0,0002.27,0000.98,0000.63
2024-01-12 09:12:00,SystemResetWarning,0817.8,4.99,000.00,018.9,017.8,000.0,027.4,020.2,6.2,0000.0,0002.41,0000.87,0000.56
2024-01-12 09:13:00,SystemResetWarning,0817.8,5.01,000.00,019.0,018.5,000.0,027.3,020.6,5.9,0000.0,0002.37,0000.78,0000.50
2024-01-12 09:14:00,SystemResetWarning,0817.8,5.01,000.00,019.1,019.2,000.0,027.3,020.9,5.9,0000.0,0002.51,0000.73,0000.45
2024-01-12 09:15:00,SystemResetWarning,0817.8,4.99,000.00,019.1,019.1,000.0,027.3,020.5,5.9,0000.0,0003.14,0000.74,0000.41
2024-01-12 09:16:00,SystemResetWarning,0817.7,4.99,000.00,019.1,018.9,000.0,027.3,020.1,6.0,0000.0,0003.15,0000.71,0000.38
2024-01-12 09:17:00,SystemResetWarning,0817.8,5.02,000.00,019.0,018.6,000.0,027.3,020.0,6.1,0000.0,0003.22,0000.68,0000.38
2024-01-12 09:18:00,SystemResetWarning,0817.8,5.00,000.00,019.0,018.4,000.0,027.4,020.0,6.1,0000.0,0003.23,0000.68,0000.37
2024-01-12 09:19:00,SystemResetWarning,0817.8,4.99,000.00,018.9,018.2,000.0,027.4,020.0,6.2,0000.0,0003.21,0000.68,0000.37
2024-01-12 09:20:00,SystemResetWarning,0817.8,4.99,000.00,018.9,017.9,000.0,027.4,020.0,6.3,0000.0,0003.19,0000.65,0000.36
2024-01-12 09:21:00,SystemResetWarning,0817.8,5.00,000.00,018.8,017.7,000.0,027.4,020.0,6.3,0000.0,0002.90,0000.63,0000.36
2024-01-12 09:22:00,SystemResetWarning,0817.9,5.00,000.00,018.8,017.6,000.0,027.4,020.1,6.4,0000.0,0002.44,0000.56,0000.35
2024-01-12 09:23:00,SystemResetWarning,0817.9,5.02,000.00,018.9,018.2,000.0,027.4,020.6,6.3,0000.0,0002.18,0000.56,0000.34
2024-01-12 09:24:00,SystemResetWarning,0817.9,4.99,000.00,019.1,019.0,000.0,027.4,020.9,6.3,0000.0,0001.98,0000.56,0000.35
2024-01-12 09:25:00,SystemResetWarning,0817.9,4.99,000.00,019.1,019.1,000.0,027.4,020.6,6.2,0000.0,0001.71,0000.54,0000.35
2024-01-12 09:26:00,SystemResetWarning,0817.9,5.00,000.00,019.1,018.9,000.0,027.3,020.2,6.2,0000.0,0001.21,0000.52,0000.35
2024-01-12 09:27:00,SystemResetWarning,0817.9,5.00,000.00,019.0,018.6,000.0,027.3,020.0,6.1,0000.0,0001.20,0000.52,0000.34
2024-01-12 09:28:00,SystemResetWarning,0817.9,5.01,000.00,019.0,018.4,000.0,027.4,020.0,6.1,0000.0,0001.09,0000.51,0000.34
2024-01-12 09:29:00,SystemResetWarning,0817.8,5.00,000.00,018.9,018.2,000.0,027.4,020.0,6.0,0000.0,0001.08,0000.51,0000.34
2024-01-12 09:30:00,SystemResetWarning,0817.8,5.00,000.00,018.9,018.0,000.0,027.4,020.0,6.1,0000.0,0001.10,0000.52,0000.34
2024-01-12 09:31:00,SystemResetWarning,0817.8,4.99,000.00,018.9,017.9,000.0,027.4,020.0,6.1,0000.0,0001.09,0000.52,0000.33
2024-01-12 09:32:00,SystemResetWarning,0817.8,5.00,000.00,018.9,017.8,000.0,027.4,020.1,6.1,0000.0,0000.99,0000.50,0000.33
2024-01-12 09:33:00,SystemResetWarning,0817.9,5.02,000.00,018.9,018.2,000.0,027.4,020.5,6.1,0000.0,0000.98,0000.49,0000.33
2024-01-12 09:34:00,SystemResetWarning,0817.9,4.99,000.00,019.1,018.9,000.0,027.3,020.9,6.0,0000.0,0000.96,0000.51,0000.34
2024-01-12 09:35:00,SystemResetWarning,0817.9,4.99,000.00,019.1,019.0,000.0,027.3,020.5,5.9,0000.0,0001.31,0000.51,0000.34
2024-01-12 09:36:00,SystemResetWarning,0817.8,5.00,000.00,019.0,018.8,000.0,027.3,020.1,5.9,0000.0,0001.82,0000.51,0000.34
2024-01-12 09:37:00,SystemResetWarning,0817.8,5.01,000.00,019.0,018.5,000.0,027.3,020.0,5.9,0000.0,0001.73,0000.51,0000.34
2024-01-12 09:38:00,SystemResetWarning,0817.8,5.00,000.00,018.9,018.2,000.0,027.4,020.0,5.9,0000.0,0001.78,0000.54,0000.34
2024-01-12 09:39:00,SystemResetWarning,0817.8,5.00,000.00,018.9,018.0,000.0,027.4,020.0,6.0,0000.0,0001.82,0000.56,0000.34
2024-01-12 09:40:00,SystemResetWarning,0817.9,5.00,000.00,018.9,017.8,000.0,027.4,020.0,6.1,0000.0,0001.79,0000.55,0000.34
2024-01-12 09:41:00,SystemResetWarning,0817.8,5.00,000.00,018.9,017.9,000.0,027.4,020.2,6.3,0000.0,0001.75,0000.53,0000.34
2024-01-12 09:42:00,SystemResetWarning,0818.0,5.02,000.00,019.0,018.6,000.0,027.3,020.7,6.3,0000.0,0001.73,0000.53,0000.35
2024-01-12 09:43:00,SystemResetWarning,0817.9,5.00,000.00,019.1,019.1,000.0,027.3,020.8,6.3,0000.0,0002.54,0000.54,0000.35
2024-01-12 09:44:00,SystemResetWarning,0817.8,4.99,000.00,019.1,019.0,000.0,027.3,020.2,6.3,0000.0,0003.13,0000.55,0000.36
2024-01-12 09:45:00,SystemResetWarning,0817.8,4.99,000.00,019.0,018.7,000.0,027.3,020.0,6.4,0000.0,0003.12,0000.55,0000.36
2024-01-12 09:46:00,SystemResetWarning,0817.9,5.01,000.00,019.0,018.4,000.0,027.4,020.0,6.4,0000.0,0002.87,0000.55,0000.37
2024-01-12 09:47:00,SystemResetWarning,0817.9,5.00,000.00,018.9,018.2,000.0,027.4,020.0,6.5,0000.0,0002.26,0000.55,0000.37
2024-01-12 09:48:00,SystemResetWarning,0817.9,5.00,000.00,018.9,018.1,000.0,027.4,020.0,6.5,0000.0,0002.35,0000.58,0000.36
2024-01-12 09:49:00,SystemResetWarning,0817.9,5.00,000.00,018.9,017.9,000.0,027.4,020.0,6.6,0000.0,0002.29,0000.55,0000.37
2024-01-12 09:50:00,SystemResetWarning,0817.8,4.99,000.00,018.9,017.9,000.0,027.4,020.2,6.6,0000.0,0002.30,0000.55,0000.39
2024-01-12 09:51:00,SystemResetWarning,0817.8,5.00,000.00,019.0,018.5,000.0,027.3,020.6,6.6,0000.0,0002.43,0000.59,0000.41
2024-01-12 09:52:00,SystemResetWarning,0817.9,5.00,000.00,019.1,019.3,000.0,027.3,021.0,6.5,0000.0,0002.54,0000.63,0000.43
2024-01-12 09:53:00,SystemResetWarning,0817.9,4.99,000.00,019.2,019.4,000.0,027.3,020.8,6.5,0000.0,0002.58,0000.66,0000.45
2024-01-12 09:54:00,SystemResetWarning,0817.7,4.99,000.00,019.2,019.2,000.0,027.3,020.2,6.5,0000.0,0002.05,0000.68,0000.45
2024-01-12 09:55:00,SystemResetWarning,0817.8,5.02,000.00,019.1,018.8,000.0,027.3,020.0,6.5,0000.0,0001.34,0000.68,0000.46
2024-01-12 09:56:00,SystemResetWarning,0817.8,5.00,000.00,019.0,018.5,000.0,027.4,020.0,6.5,0000.0,0001.33,0000.68,0000.46
2024-01-12 09:57:00,SystemResetWarning,0817.8,4.99,000.00,019.0,018.2,000.0,027.4,020.0,6.5,0000.0,0001.31,0000.67,0000.45
2024-01-12 09:58:00,SystemResetWarning,0817.8,5.00,000.00,018.9,018.0,000.0,027.4,020.0,6.5,0000.0,0001.38,0000.68,0000.45
2024-01-12 09:59:00,SystemResetWarning,0817.8,5.00,000.00,018.9,017.8,000.0,027.4,020.0,6.6,0000.0,0001.36,0000.66,0000.45
